Weather History for PAWD - January, 2012

Change the Weather History Date:

Friday, January 13, 2012

  Actual Average Record
Temperature  
Mean Temperature 14 °F -  
Max Temperature 17 °F 29 °F 44 °F (1981)
Min Temperature 12 °F 19 °F -4 °F (1968)
Degree Days  
Heating Degree Days 50    
Moisture  
Dew Point 0 °F    
Average Humidity 53    
Maximum Humidity 59    
Minimum Humidity 45    
Precipitation  
Precipitation 0.00 in - - ()
Sea Level Pressure  
Sea Level Pressure 30.15 in    
Wind  
Wind Speed 21 mph (North)    
Max Wind Speed 26 mph    
Max Gust Speed 43 mph    
Visibility 9 miles    
Events      
Averages and records for this station are not official NWS values.
T = Trace of Precipitation, MM = Missing Value Source: NWS Daily Summary

Daily Weather History Graph

Daily Weather History Graph

Search for Another Location

Airport or City:

Trip Planner

Search our weather history database for the weather conditions in past years. The results will help you decide how hot, cold, wet, or windy it might be!

Date:

Astronomy

Jan. 13, 2012 Rise Set
Actual Time 9:49 AM AKST 4:23 PM AKST
Civil Twilight 8:55 AM AKST 5:17 PM AKST
Nautical Twilight 8:01 AM AKST 6:12 PM AKST
Astronomical Twilight 7:10 AM AKST 7:02 PM AKST
Moon 11:32 PM AKST (1/13) 10:35 AM AKST (1/13)
Length of Visible Light 8h 21m
Length of Day
6h 34m
Waning Gibbous, 77% of the Moon is Illuminated
Jan 13
Waning Gibbous
Jan 16
Last Quarter
Jan 22
New
Jan 30
First Quarter
Feb 7
Full

Hourly Weather History & Observations

Time (AKST) Temp. Windchill Dew Point Humidity Pressure Visibility Wind Dir Wind Speed Gust Speed Precip Events Conditions
12:53 AM 17.1 °F 0.6 °F 3.0 °F 54% 29.85 in 10.0 mi NNW 19.6 mph 28.8 mph N/A   Unknown
1:53 AM 16.0 °F -3.2 °F 3.9 °F 59% 29.88 in 6.0 mi NW 26.5 mph 38.0 mph 0.00 in   Unknown
3:53 AM 15.1 °F -3.7 °F 3.0 °F 59% 29.95 in 7.0 mi North 24.2 mph 42.6 mph 0.00 in   Unknown
4:53 AM 15.1 °F -4.0 °F 3.0 °F 59% 29.97 in 9.0 mi North 25.3 mph 33.4 mph N/A   Unknown
5:53 AM 15.1 °F -2.9 °F 3.0 °F 59% 30.00 in 10.0 mi North 21.9 mph 32.2 mph N/A   Unknown
6:53 AM 15.1 °F 1.1 °F 1.9 °F 56% 30.03 in 10.0 mi North 12.7 mph 33.4 mph N/A   Unknown
7:53 AM 15.1 °F -1.6 °F 1.0 °F 54% 30.06 in 10.0 mi North 18.4 mph 33.4 mph N/A   Unknown
8:53 AM 14.0 °F -3.0 °F 1.0 °F 56% 30.07 in 10.0 mi North 18.4 mph 29.9 mph N/A   Unknown
9:53 AM 14.0 °F -2.5 °F 1.0 °F 56% 30.11 in 10.0 mi North 17.3 mph 27.6 mph N/A   Unknown
10:53 AM 15.1 °F -0.6 °F 1.0 °F 54% 30.13 in 10.0 mi North 16.1 mph 33.4 mph N/A   Unknown
11:53 AM 14.0 °F -2.0 °F 1.0 °F 56% 30.16 in 10.0 mi North 16.1 mph 29.9 mph N/A   Unknown
12:53 PM 15.1 °F -3.7 °F -0.0 °F 51% 30.17 in 9.0 mi NNW 24.2 mph 34.5 mph N/A   Unknown
1:53 PM 14.0 °F -5.8 °F -0.0 °F 54% 30.18 in 8.0 mi NNW 26.5 mph 38.0 mph N/A   Clear
2:53 PM 12.9 °F -6.5 °F -2.0 °F 51% 30.20 in 8.0 mi North 24.2 mph 33.4 mph N/A   Clear
3:53 PM 12.9 °F -5.3 °F -2.0 °F 51% 30.23 in 10.0 mi North 20.7 mph 29.9 mph N/A   Clear
4:53 PM 12.9 °F -7.3 °F -2.9 °F 49% 30.25 in 7.0 mi NNW 26.5 mph 36.8 mph N/A   Clear
5:53 PM 12.9 °F -5.3 °F -2.9 °F 49% 30.28 in 10.0 mi North 20.7 mph 39.1 mph N/A   Clear
6:53 PM 14.0 °F -5.1 °F -4.0 °F 45% 30.30 in 9.0 mi North 24.2 mph 42.6 mph N/A   Clear
7:53 PM 12.9 °F -5.3 °F -4.0 °F 47% 30.31 in 10.0 mi North 20.7 mph 26.5 mph N/A   Clear
8:53 PM 12.9 °F -4.4 °F -2.0 °F 51% 30.33 in 10.0 mi NNE 18.4 mph 33.4 mph N/A   Clear
9:53 PM 12.9 °F -3.9 °F -4.0 °F 47% 30.35 in 10.0 mi North 17.3 mph 28.8 mph N/A   Clear
10:53 PM 14.0 °F -3.0 °F -4.0 °F 45% 30.37 in 10.0 mi North 18.4 mph 39.1 mph N/A   Clear
11:53 PM 14.0 °F -3.0 °F -2.9 °F 47% 30.38 in 10.0 mi North 18.4 mph 26.5 mph N/A   Clear